PBO Station Position Time Series. Reference Frame : NAM14
Format Version,1.1.1
4-character ID,CORX
Station name,Mekoryuk__AK2008
Begin Date, 2018-09-09
End Date, 2023-06-26
Release Date, 2023-06-27
Reference position, 32.4153753855 North Latitude, -117.2481863289 East Longitude, 74.24628 meters elevation,
Date, North (mm), East (mm), Vertical (mm), North Std. Deviation (mm), East Std. Deviation (mm),              Vertical Std. Deviation (mm), Quality,
2018-09-09,0.00, 0.00, 8.37, 6.22, 3.01, 41.53, campf,
2018-09-10,-0.69, -0.12, 6.75, 6.23, 2.57, 32.58, campf,
2018-09-11,0.12, 0.08, 5.02, 14.57, 3.91, 43.92, campf,
2018-09-12,-0.35, 0.33, 6.96, 16.92, 5.49, 68.32, campf,
2018-09-13,-0.57, 0.38, 2.88, 3.82, 2.45, 21.67, campf,
2018-09-14,-0.83, -1.00, 2.54, 4.96, 2.35, 31.47, campf,
2018-09-15,-0.86, 0.55, 2.13, 4.51, 2.00, 20.87, campf,
2018-09-16,-0.54, 1.28, 0.25, 14.45, 6.25, 75.18, campf,
2018-09-17,-0.01, 0.70, -2.03, 12.66, 5.09, 55.90, campf,
2018-09-18,-0.31, 1.32, 4.88, 21.79, 5.60, 70.25, campf,
2018-09-19,-1.79, 0.54, 3.93, 9.53, 2.76, 34.23, campf,
2018-09-20,-0.51, 0.83, -5.86, 15.33, 3.92, 45.57, campf,
2018-09-21,-0.17, 1.15, -10.63, 23.95, 6.84, 144.13, campf,
2018-09-22,-0.14, 0.56, -6.37, 13.35, 4.73, 92.37, campf,
2018-09-23,-0.32, -0.92, 2.74, 5.26, 2.88, 40.19, campf,
2018-09-24,-0.97, -1.23, 3.18, 6.56, 2.85, 46.03, campf,
2018-09-25,-0.85, 0.54, -0.10, 7.80, 4.44, 87.21, campf,
2018-09-26,-0.32, 0.01, -2.88, 6.53, 2.86, 45.71, campf,
2018-09-27,-0.06, 0.32, 2.13, 6.51, 2.86, 45.69, campf,
2018-09-28,-0.11, -1.21, 0.00, 5.21, 1.99, 9.85, campf,
2018-09-29,-0.20, -1.11, 4.75, 6.80, 1.84, 12.14, campf,
2018-09-30,-0.73, -0.09, -0.93, 5.57, 2.79, 10.26, campf,
2018-10-01,-0.58, -0.98, 0.81, 4.90, 2.96, 10.33, campf,
2018-10-02,-0.72, 1.20, -1.19, 4.83, 2.84, 9.92, campf,
2018-10-03,-0.53, 0.66, -1.18, 8.32, 2.08, 13.88, campf,
2018-10-04,-0.09, 0.04, 3.45, 5.92, 2.65, 9.74, campf,
2018-10-05,-0.51, -0.76, 0.71, 6.25, 3.04, 41.50, campf,
2018-10-06,0.19, -1.38, -0.93, 3.96, 2.20, 22.69, campf,
2018-10-07,0.70, -0.57, 5.12, 6.30, 2.86, 34.53, campf,
2018-10-08,-1.68, -0.14, 1.11, 4.15, 1.89, 9.81, campf,
2018-10-09,-0.81, -0.37, 2.63, 6.90, 2.68, 11.19, campf,
2018-10-10,0.26, -0.73, 1.05, 6.07, 2.24, 10.87, campf,
2018-10-11,-0.97, -1.01, 4.36, 5.91, 2.15, 9.90, campf,
2018-10-12,0.29, -0.09, 0.60, 5.53, 2.69, 8.91, campf,
2018-10-13,0.64, -1.08, -2.83, 6.19, 2.47, 11.78, campf,
2018-10-14,-0.63, -0.09, 2.58, 6.30, 3.10, 48.38, campf,
2018-10-15,0.51, 1.44, -4.23, 7.35, 2.93, 47.16, campf,
2018-10-16,0.23, 0.64, -1.62, 5.83, 2.82, 42.25, campf,
2018-10-17,0.21, 0.10, -1.77, 5.29, 2.27, 29.11, campf,
2018-10-18,-0.60, -0.03, -0.74, 3.92, 4.93, 27.04, supp6,
2018-10-19,0.09, -0.40, -0.72, 3.93, 4.95, 27.10, supp6,
2018-10-20,1.00, -0.34, 3.15, 8.42, 5.53, 40.79, supp6,
2018-10-21,0.08, -0.33, -1.01, 4.06, 1.98, 21.93, supp6,
2018-10-22,-0.36, -0.14, -1.92, 4.15, 2.04, 22.13, supp6,
2018-10-23,0.04, 0.35, 2.19, 3.95, 2.03, 23.19, supp6,
2018-10-24,-0.52, -0.65, 1.36, 4.04, 2.02, 19.25, supp6,
2018-10-25,-0.24, 0.51, -0.51, 3.85, 2.11, 22.40, supp6,
2018-10-26,0.39, 0.75, -1.93, 6.04, 2.76, 28.80, supp6,
2018-10-27,-0.67, -0.10, -0.91, 5.86, 3.27, 39.62, supp6,
2018-10-28,0.07, 0.34, 1.63, 9.88, 3.07, 44.62, supp6,
2018-10-29,-0.68, 0.04, -2.69, 8.32, 2.52, 38.58, supp6,
2018-10-30,-1.17, -0.38, -1.30, 9.96, 3.14, 45.56, supp6,
2018-10-31,0.65, 0.23, 0.50, 9.96, 3.31, 45.42, supp6,
2018-11-01,1.54, -0.03, -0.23, 9.78, 3.07, 44.38, supp6,
2018-11-02,0.59, 0.26, 6.85, 7.15, 3.52, 37.65, supp6,
2018-11-03,-0.22, 0.28, 9.54, 7.29, 2.76, 38.37, supp6,
2018-11-04,0.57, 0.52, 10.05, 3.89, 1.95, 20.73, supp6,
2018-11-05,0.55, -0.34, 6.45, 3.86, 2.03, 22.42, supp6,
2018-11-06,0.57, -0.60, 1.55, 3.99, 1.98, 18.05, supp6,
2018-11-07,0.12, -0.96, 0.45, 3.90, 1.90, 20.63, supp6,
2018-11-08,-0.60, -0.09, 0.74, 4.55, 1.99, 21.01, supp6,
2018-11-09,-0.56, 0.70, 0.13, 4.02, 2.10, 21.05, supp6,
2018-11-10,0.31, 0.35, 1.93, 8.64, 2.47, 30.25, supp6,
2018-11-11,0.74, -0.23, -3.43, 19.19, 6.63, 83.76, supp6,
2018-11-12,0.59, -1.12, -5.14, 23.77, 8.12, 103.03, supp6,
2018-11-13,0.48, -1.06, -3.53, 8.42, 2.50, 29.14, supp6,
2018-11-14,1.07, -0.08, 1.10, 8.26, 2.34, 28.52, supp6,
2018-11-15,-0.21, -0.78, -1.02, 18.68, 6.33, 80.11, supp6,
2018-11-16,-0.54, 0.69, 1.04, 23.44, 8.04, 101.99, supp6,
2018-11-17,-0.66, 1.16, 2.81, 16.33, 5.85, 73.21, supp6,
2018-11-18,0.61, -0.19, 3.83, 24.06, 8.23, 104.44, supp6,
2018-11-19,-1.61, 1.89, 24.13, 28.89, 17.94, 227.78, supp6,
2018-11-20,-1.09, 0.33, 5.18, 24.03, 8.21, 104.22, supp6,
2018-11-21,-0.82, -1.02, 4.43, 23.92, 8.17, 103.64, supp6,
2018-11-22,-1.13, 0.76, 13.73, 28.83, 17.89, 227.18, supp6,
2018-11-23,-0.08, -0.70, 8.86, 24.04, 8.21, 104.01, supp6,
2018-11-24,0.72, -0.62, -0.12, 19.48, 6.61, 83.51, supp6,
2018-11-25,0.09, -0.13, 2.24, 23.40, 14.96, 190.29, supp6,
2018-11-26,1.09, -0.97, -5.36, 14.63, 6.85, 83.75, supp6,
2018-11-27,1.88, -2.57, -20.18, 28.99, 18.05, 229.27, supp6,
2018-11-28,0.32, 0.33, -1.92, 13.80, 6.16, 74.37, supp6,
2018-11-29,0.42, 0.14, 8.14, 8.15, 4.82, 48.18, supp6,
2018-11-30,2.40, 0.82, 1.45, 11.03, 12.41, 154.89, supp6,
2018-12-01,-0.72, -0.70, 19.58, 23.44, 14.97, 190.58, supp6,
2018-12-02,0.16, -0.79, 9.00, 13.39, 10.22, 92.97, supp6,
2018-12-03,0.07, 0.79, 6.10, 13.16, 10.12, 92.06, supp6,
2018-12-04,0.43, 0.51, 3.14, 11.29, 7.02, 68.38, supp6,
2018-12-05,-0.69, -0.36, 3.38, 15.33, 7.70, 66.87, supp6,
2018-12-06,-0.34, 0.87, 0.25, 13.31, 10.19, 92.68, supp6,
2018-12-07,0.37, -0.17, -8.99, 13.76, 10.59, 95.86, supp6,
2018-12-08,0.01, 0.64, 5.13, 13.25, 10.11, 91.77, supp6,
2018-12-09,0.45, 0.09, 0.69, 13.50, 5.99, 53.65, supp6,
2018-12-10,1.77, -0.53, 2.69, 13.82, 10.51, 95.61, supp6,
2018-12-11,1.25, -0.58, -1.30, 13.28, 10.10, 91.88, supp6,
2018-12-12,1.71, -1.33, 2.37, 13.11, 10.07, 91.68, supp6,
2018-12-13,0.28, -0.76, 6.02, 13.41, 10.59, 96.16, supp6,
2018-12-14,1.31, 0.26, 4.66, 13.57, 10.71, 97.24, supp6,
2018-12-15,-0.02, 0.03, 7.94, 11.11, 6.92, 67.35, supp6,
2018-12-16,1.56, -0.74, -1.26, 12.26, 4.63, 51.08, supp6,
2018-12-17,0.62, -1.22, 2.87, 30.91, 9.07, 117.19, supp6,
2018-12-18,0.59, -1.09, 3.20, 11.33, 5.91, 54.83, supp6,
2018-12-19,-0.51, -0.41, 2.05, 14.72, 7.49, 64.88, supp6,
2018-12-20,0.28, -0.58, 4.73, 9.09, 5.85, 57.30, supp6,
2018-12-21,0.57, -0.57, 9.45, 28.38, 19.05, 242.04, supp6,
2018-12-22,-0.04, 0.17, 3.97, 30.69, 8.96, 115.97, supp6,
2018-12-23,0.85, -0.76, 2.16, 16.77, 8.57, 104.66, supp6,
2018-12-24,0.18, -0.48, 2.67, 16.50, 6.76, 81.81, supp6,
2018-12-25,0.42, -1.09, 7.02, 9.13, 5.64, 68.25, supp6,
2018-12-26,-0.08, -1.68, 6.45, 11.24, 6.97, 83.82, supp6,
2018-12-27,1.15, -1.40, 3.59, 10.34, 5.16, 61.91, supp6,
2018-12-28,2.47, -1.59, 2.24, 11.09, 6.74, 80.86, supp6,
2018-12-29,0.45, -1.16, 3.74, 17.50, 4.47, 56.89, supp6,
2018-12-30,0.96, -0.59, 3.52, 8.62, 6.15, 72.94, supp6,
2018-12-31,-0.09, -1.12, 2.97, 10.63, 6.01, 78.69, supp6,
2019-01-01,1.48, -1.65, 1.95, 7.46, 4.16, 49.50, supp6,
2019-01-02,1.23, -1.34, 2.59, 7.50, 4.16, 49.61, supp6,
2019-01-03,1.67, -0.74, 6.16, 17.16, 7.37, 62.18, supp6,
2019-01-04,0.91, -0.70, 5.60, 8.03, 3.84, 50.02, supp6,
2019-01-05,0.83, -1.58, 4.83, 7.40, 7.07, 98.59, supp6,
2019-01-06,1.00, -1.25, 7.36, 10.49, 5.91, 77.37, supp6,
2019-01-07,-0.57, -1.03, -0.66, 7.80, 7.03, 97.88, supp6,
2019-01-08,0.64, -0.80, -2.82, 8.10, 5.97, 75.21, supp6,
2019-01-09,0.64, 0.44, -5.07, 11.08, 5.12, 37.70, supp6,
2019-01-10,1.35, -0.34, -2.08, 16.57, 7.78, 64.61, supp6,
2019-01-11,1.69, -0.80, 1.98, 16.03, 7.91, 63.00, supp6,
2019-01-12,1.10, -0.03, 4.32, 8.21, 4.15, 51.03, supp6,
2019-01-13,1.55, -1.72, 3.27, 8.29, 4.93, 45.51, supp6,
2019-01-14,-0.65, -0.92, -0.75, 9.95, 4.91, 49.62, supp6,
2019-01-15,1.57, -1.19, 2.29, 8.10, 4.75, 45.01, supp6,
2019-01-16,1.61, -0.21, -11.77, 5.94, 3.60, 25.36, supp6,
2019-01-17,2.41, -0.04, -1.64, 8.67, 5.57, 54.17, supp6,
2019-01-18,2.19, -0.76, -0.96, 5.60, 3.43, 24.37, supp6,
2019-01-19,1.33, -0.48, -7.06, 8.22, 4.78, 45.63, supp6,
2019-01-20,1.66, 0.02, -1.28, 8.45, 4.93, 46.52, supp6,
2019-01-21,1.46, -1.56, -2.43, 9.95, 7.44, 84.69, supp6,
2019-01-22,2.13, -0.86, -4.44, 8.45, 4.91, 46.56, supp6,
2019-01-23,2.18, -0.98, 0.59, 8.32, 4.91, 46.59, supp6,
2019-01-24,1.42, -1.20, -2.77, 10.01, 4.81, 50.41, supp6,
2019-01-25,0.01, -0.36, -2.05, 11.31, 12.78, 130.74, supp6,
2019-01-26,0.85, -0.34, -0.50, 13.87, 12.53, 121.71, supp6,
2019-01-27,0.77, 0.15, 0.65, 11.47, 5.92, 55.17, supp6,
2019-01-28,0.75, -0.01, -0.13, 16.83, 5.30, 63.62, supp6,
2019-01-29,0.89, -0.44, -3.65, 14.65, 5.36, 66.11, supp6,
2019-01-30,0.67, -0.94, 1.23, 11.28, 10.55, 117.16, supp6,
2019-01-31,0.18, 0.46, -2.94, 13.73, 6.82, 73.20, supp6,
2019-02-01,0.57, -0.81, 6.62, 13.21, 6.67, 71.72, supp6,
2019-02-02,1.19, -0.69, 1.80, 11.96, 6.24, 71.21, supp6,
2019-02-03,0.62, -0.22, 11.17, 10.44, 8.29, 88.08, supp6,
2019-02-04,1.44, -0.20, 3.45, 11.28, 5.54, 64.33, supp6,
2019-02-05,0.16, -0.40, 2.04, 13.35, 6.71, 72.48, supp6,
2019-02-06,0.13, 0.47, 2.62, 15.02, 5.14, 62.57, supp6,
2019-02-07,0.74, 0.77, 4.06, 17.23, 7.42, 62.26, supp6,
2019-02-08,0.92, -0.03, 0.12, 9.11, 5.43, 65.70, supp6,
2019-02-09,0.76, -0.51, -1.79, 9.38, 4.23, 46.51, supp6,
2019-02-10,0.33, -0.68, -2.93, 12.72, 7.22, 75.15, supp6,
2019-02-11,-0.17, 0.64, 0.82, 12.13, 6.81, 62.31, supp6,
2019-02-12,0.15, -0.20, 1.35, 13.43, 7.52, 77.08, supp6,
2019-02-13,0.09, -0.42, 9.17, 12.67, 7.12, 74.48, supp6,
2019-02-14,-0.21, 0.08, 13.70, 9.95, 7.46, 85.27, supp6,
2019-02-15,0.79, 0.08, 5.22, 7.83, 4.58, 43.55, supp6,
2019-02-16,1.28, -0.07, 4.20, 13.32, 8.08, 72.86, supp6,
2019-02-17,1.07, -0.70, 5.49, 18.64, 10.10, 67.12, supp6,
2019-02-18,1.73, -1.36, 4.65, 4.78, 3.88, 27.11, supp6,
2019-02-19,0.78, -0.51, 6.63, 9.60, 6.01, 44.06, supp6,
2019-02-20,0.98, -0.71, 5.74, 9.64, 7.14, 80.85, supp6,
2019-02-21,0.96, -0.65, 6.72, 7.53, 4.40, 41.77, supp6,
2019-02-22,1.24, -0.32, 5.14, 8.77, 5.56, 54.71, supp6,
2019-02-23,0.87, -0.25, 2.34, 5.96, 3.85, 27.78, supp6,
2019-02-24,0.81, -0.79, -3.25, 1.79, 1.57, 6.97, supp6,
2019-02-25,0.94, -0.91, -1.20, 1.80, 1.57, 6.99, supp6,
2019-02-26,-0.19, -0.93, -6.48, 1.83, 1.64, 7.12, supp6,
2019-02-27,0.51, 0.42, 1.50, 1.80, 1.58, 6.99, supp6,
2019-02-28,1.12, 0.32, 4.51, 1.81, 1.58, 7.04, supp6,
2019-03-01,0.70, -1.15, -3.07, 1.84, 1.59, 7.10, supp6,
2019-03-02,0.52, -0.21, -0.95, 1.81, 1.58, 7.08, supp6,
2019-03-03,0.53, 0.14, -3.33, 1.80, 1.57, 7.02, supp6,
2019-03-04,0.95, 0.17, 1.34, 1.80, 1.57, 6.97, supp6,
2019-03-05,-0.69, -0.38, -2.75, 1.84, 1.67, 7.28, supp6,
2019-03-06,-0.84, 0.65, 3.93, 1.82, 1.60, 7.11, supp6,
2019-03-07,0.24, 0.44, -0.29, 1.79, 1.57, 6.95, supp6,
2019-03-08,1.62, 0.13, 1.10, 1.80, 1.56, 6.96, supp6,
2019-03-09,0.35, 0.57, -1.75, 1.80, 1.57, 7.00, supp6,
2019-03-10,-0.12, -0.23, -2.21, 1.79, 1.58, 7.02, supp6,
2019-03-11,0.14, -0.40, -4.72, 1.83, 1.61, 7.13, supp6,
2019-03-12,1.03, -1.09, -2.49, 1.79, 1.56, 6.96, supp6,
2019-03-13,1.72, -0.38, -0.07, 1.82, 1.61, 7.11, supp6,
2019-03-14,1.00, 0.12, -1.80, 1.80, 1.56, 7.00, supp6,
2019-03-15,0.09, -0.39, -5.21, 1.82, 1.60, 7.12, supp6,
2019-03-16,0.04, -0.21, -10.29, 1.79, 1.58, 7.06, supp6,
2019-03-17,0.52, -0.68, -7.97, 1.79, 1.57, 7.00, supp6,
2019-03-18,0.83, -0.46, -7.68, 1.79, 1.57, 7.02, supp6,
2019-03-19,1.36, -0.57, -7.79, 1.82, 1.58, 7.09, supp6,
2019-03-20,1.47, -1.14, -9.14, 1.81, 1.57, 7.03, supp6,
2019-03-21,0.62, 0.62, -7.51, 1.93, 1.70, 7.47, supp6,
2019-03-22,1.24, -0.15, -6.72, 1.87, 1.68, 7.44, supp6,
2019-03-23,0.93, 0.13, -1.91, 1.84, 1.61, 7.17, supp6,
2019-03-24,1.48, -0.24, -5.57, 1.86, 1.62, 7.30, supp6,
2019-03-25,1.14, -0.76, -1.53, 2.12, 1.86, 8.12, supp6,
2019-03-26,0.74, -0.11, -2.62, 1.99, 1.78, 7.73, supp6,
2019-03-27,1.40, -0.72, -2.95, 2.07, 1.94, 8.57, supp6,
2019-03-28,0.58, -0.60, -1.73, 1.89, 1.67, 7.30, supp6,
2019-03-29,0.92, -0.18, -1.67, 1.85, 1.61, 7.20, supp6,
2019-03-30,0.21, -0.56, -4.68, 1.95, 1.73, 7.71, supp6,
2019-03-31,1.92, 0.80, -3.86, 1.94, 1.67, 7.50, supp6,
2019-04-01,1.13, -0.00, -1.36, 2.00, 1.75, 8.03, supp6,
2019-04-02,0.56, 0.08, 0.70, 1.84, 1.69, 7.25, supp6,
2019-04-03,0.25, -0.02, -0.52, 1.95, 1.72, 7.48, supp6,
2019-04-04,0.57, 0.05, -3.36, 1.81, 1.57, 7.09, supp6,
2019-04-05,0.74, 0.27, -0.33, 1.81, 1.57, 7.03, supp6,
2019-04-06,-0.85, -0.15, 4.08, 1.79, 1.56, 7.00, supp6,
2019-04-07,0.79, 0.59, -4.28, 1.84, 1.58, 7.07, supp6,
2019-04-08,0.32, 0.11, -2.71, 1.79, 1.55, 6.96, supp6,
2019-04-09,-0.41, 0.47, -4.69, 1.86, 1.61, 7.31, supp6,
2019-04-10,-0.15, -0.69, 0.27, 1.85, 1.65, 7.33, supp6,
2019-04-11,0.14, -0.60, -1.65, 1.85, 1.64, 7.30, supp6,
2019-04-12,0.69, -0.83, 2.19, 1.83, 1.57, 7.17, supp6,
2019-04-13,1.13, -0.46, 1.78, 1.80, 1.56, 6.99, supp6,
2019-04-14,0.38, 0.54, 0.78, 1.83, 1.60, 7.12, supp6,
2019-04-15,0.75, -0.51, 4.09, 1.84, 1.62, 7.20, supp6,
2019-04-16,0.22, -0.48, 2.71, 1.80, 1.57, 6.99, supp6,
2019-04-17,0.51, -0.65, -4.48, 1.85, 1.59, 7.26, supp6,
2019-04-18,0.45, -0.41, -3.07, 1.80, 1.57, 7.02, supp6,
2019-04-19,-0.12, 0.26, 2.05, 1.87, 1.59, 7.26, supp6,
2019-04-20,-0.15, -0.54, 6.22, 1.79, 1.56, 6.96, supp6,
2019-04-21,0.67, -0.11, 3.85, 1.89, 1.77, 7.38, supp6,
2019-04-22,0.58, -0.95, -0.56, 1.79, 1.56, 6.96, supp6,
2019-04-23,1.01, -0.61, -4.43, 1.80, 1.56, 6.96, supp6,
2019-04-24,-0.04, 0.21, 2.15, 1.86, 1.62, 7.17, supp6,
2019-04-25,-0.32, -0.30, -0.62, 1.94, 1.84, 7.63, supp6,
2019-04-26,-0.13, -0.05, 0.83, 1.80, 1.56, 6.99, supp6,
2019-04-27,0.08, -0.17, 2.39, 1.81, 1.56, 6.98, supp6,
2019-04-28,0.43, -0.16, 2.49, 1.80, 1.56, 6.97, supp6,
2019-04-29,-0.35, -1.52, 6.70, 1.81, 1.58, 7.04, supp6,
2019-04-30,-0.42, 0.01, 2.44, 1.79, 1.57, 6.98, supp6,
2019-05-01,-0.60, -0.71, 1.20, 1.79, 1.57, 6.99, supp6,
2019-05-02,0.35, -0.26, -2.35, 1.82, 1.62, 7.07, supp6,
2019-05-03,0.43, -1.41, 1.22, 1.82, 1.62, 7.08, supp6,
2019-05-04,0.04, -0.01, 0.57, 1.80, 1.57, 7.01, supp6,
2019-05-05,-0.49, -1.00, 0.24, 1.79, 1.57, 7.01, supp6,
2019-05-06,-1.00, -1.97, 11.00, 1.82, 1.59, 7.17, supp6,
2019-05-07,-1.18, -0.92, 2.02, 1.89, 1.64, 7.32, supp6,
2019-05-08,0.27, -0.32, 1.49, 1.84, 1.59, 7.11, supp6,
2019-05-09,0.75, -0.79, 4.06, 1.80, 1.56, 6.98, supp6,
2019-05-10,0.92, -0.68, -3.23, 1.80, 1.56, 6.99, supp6,
2019-05-11,1.39, -1.57, 1.65, 1.81, 1.57, 7.04, supp6,
2019-05-12,0.40, -0.63, 3.36, 1.79, 1.56, 6.97, supp6,
2019-05-13,0.24, -1.02, 8.29, 1.79, 1.56, 7.01, supp6,
2019-05-14,0.48, -0.73, 3.92, 1.81, 1.57, 7.06, supp6,
2019-05-15,0.47, -0.07, 2.28, 1.79, 1.56, 6.99, supp6,
2019-05-16,0.93, -0.82, 6.21, 1.80, 1.56, 7.00, supp6,
2019-05-17,0.65, -0.78, 6.02, 1.80, 1.56, 7.01, supp6,
2019-05-18,-0.95, -0.84, 7.37, 1.82, 1.62, 7.11, supp6,
2019-05-19,-0.96, -1.37, 8.38, 1.81, 1.57, 7.07, supp6,
2019-05-20,1.80, -0.76, 8.41, 1.79, 1.55, 6.98, supp6,
2019-05-21,1.77, -0.67, 3.91, 1.82, 1.61, 7.13, supp6,
2019-05-22,1.10, -0.28, 3.91, 1.83, 1.62, 7.16, supp6,
2019-05-23,0.21, -0.37, 2.00, 1.79, 1.55, 6.95, supp6,
2019-05-24,-0.16, 0.10, 1.51, 1.79, 1.56, 6.98, supp6,
2019-05-25,0.10, -0.17, 2.90, 1.79, 1.56, 6.99, supp6,
2019-05-26,0.40, 0.66, -0.02, 1.78, 1.56, 6.98, supp6,
2019-05-27,1.43, -1.08, 2.63, 1.89, 1.65, 7.37, supp6,
2019-05-28,0.59, -0.32, 0.44, 1.81, 1.56, 7.03, supp6,
2019-05-29,-0.24, -0.09, 6.76, 1.81, 1.57, 7.10, supp6,
2019-05-30,-1.32, 0.51, 6.90, 1.79, 1.56, 6.99, supp6,
2019-05-31,-0.38, -0.39, 3.17, 1.82, 1.59, 7.09, supp6,
2019-06-01,0.04, -0.12, 6.60, 1.79, 1.56, 7.03, supp6,
2019-06-02,0.53, 0.03, 0.77, 1.81, 1.57, 7.09, supp6,
2019-06-03,0.74, -0.45, 8.08, 1.84, 1.59, 7.17, supp6,
2019-06-04,-0.08, -0.20, 6.09, 1.80, 1.56, 7.00, supp6,
2019-06-05,0.12, -0.69, 3.41, 2.22, 1.95, 8.55, supp6,
2019-06-06,0.65, 0.68, 8.64, 1.83, 1.61, 7.22, supp6,
2019-06-07,-0.39, 0.22, 7.28, 2.45, 2.21, 9.73, supp6,
2019-06-08,0.37, -0.42, 10.16, 2.21, 1.95, 8.66, supp6,
2019-06-09,0.76, -0.51, -0.04, 1.80, 1.56, 7.01, supp6,
2019-06-10,0.90, 0.91, -4.47, 1.83, 1.59, 7.09, supp6,
2019-06-11,0.52, 0.43, 2.03, 1.83, 1.58, 7.11, supp6,
2019-06-12,0.69, 0.96, -4.20, 1.84, 1.58, 7.09, supp6,
2019-06-13,0.62, 0.60, -0.82, 1.85, 1.58, 7.10, supp6,
2019-06-14,1.02, 0.42, 5.24, 1.97, 1.71, 7.73, supp6,
2019-06-15,0.00, 0.28, 4.23, 1.92, 1.65, 7.51, supp6,
2019-06-16,-0.76, 0.36, 4.53, 2.01, 1.73, 7.70, supp6,
2019-06-17,-0.11, -0.01, 4.99, 1.86, 1.64, 7.27, supp6,
2019-06-18,1.58, -0.52, 1.55, 1.84, 1.58, 7.11, supp6,
2019-06-19,1.12, 0.56, 2.35, 1.99, 1.70, 7.59, supp6,
2019-06-20,0.88, -1.08, 8.65, 1.95, 1.68, 7.44, supp6,
2019-06-21,-0.97, -0.54, 10.80, 2.36, 2.08, 9.64, supp6,
2019-06-22,1.06, -1.51, 11.83, 1.89, 1.66, 7.38, supp6,
2019-06-23,0.01, 0.44, 10.63, 1.86, 1.60, 7.23, supp6,
2019-06-24,0.78, -0.47, 7.08, 1.82, 1.58, 7.08, supp6,
2019-06-25,0.21, -0.18, 8.12, 1.83, 1.59, 7.12, supp6,
2019-06-26,0.24, -0.58, 0.10, 1.84, 1.59, 7.14, supp6,
2019-06-27,0.65, -0.46, 3.62, 2.06, 1.74, 7.96, supp6,
2019-06-28,1.19, -0.48, 1.06, 2.24, 1.98, 8.97, supp6,
2019-06-29,-0.44, 0.76, 3.91, 1.94, 1.68, 7.63, supp6,
2019-06-30,1.12, -0.30, -0.71, 1.90, 1.68, 7.82, supp6,
2019-07-01,-0.47, 0.34, 3.87, 1.81, 1.59, 7.14, supp6,
2019-07-02,1.30, 0.24, 0.68, 1.82, 1.58, 7.18, supp6,
2019-07-03,-0.46, -1.38, 5.39, 1.81, 1.56, 7.08, supp6,
2019-07-04,1.00, -0.26, 3.04, 1.82, 1.58, 7.10, supp6,
2019-07-05,0.79, -0.12, -1.58, 1.78, 1.57, 7.05, supp6,
2019-07-06,1.68, 0.40, 1.71, 1.80, 1.56, 7.06, supp6,
2019-07-07,2.19, -1.07, 2.70, 1.83, 1.61, 7.16, supp6,
2019-07-08,1.97, -0.31, 4.92, 1.80, 1.57, 7.06, supp6,
2019-07-09,2.01, -0.39, 2.12, 1.80, 1.57, 7.06, supp6,
2019-07-10,2.55, -0.21, 0.42, 1.80, 1.57, 7.08, supp6,
2019-07-11,3.08, -0.18, -1.53, 1.80, 1.58, 7.11, supp6,
2019-07-12,1.82, -0.33, 2.02, 1.87, 1.66, 7.40, suppl,
2019-07-13,1.95, -1.78, 5.68, 1.86, 1.63, 7.28, suppl,
2019-07-14,1.72, -0.68, -2.40, 1.85, 1.59, 7.18, supp6,
2019-07-15,2.58, -0.61, 5.43, 1.84, 1.59, 7.20, supp6,
2019-07-16,1.60, 0.19, -0.93, 1.83, 1.59, 7.13, supp6,
2019-07-17,2.15, 0.43, 6.47, 1.88, 1.69, 7.43, supp6,
2019-07-18,2.72, -0.36, 4.54, 1.84, 1.63, 7.29, supp6,
2019-07-19,2.77, -1.10, 1.49, 1.90, 1.63, 7.34, supp6,
2019-07-20,2.77, -1.51, -3.68, 1.86, 1.62, 7.39, supp6,
2019-07-21,2.88, -0.47, 2.38, 1.95, 1.72, 7.67, supp6,
2019-07-22,2.19, -1.40, -0.44, 1.80, 1.60, 7.20, supp6,
2019-07-23,1.26, 0.31, -1.83, 1.83, 1.64, 7.27, supp6,
2019-07-24,1.91, 0.34, -0.23, 1.88, 1.70, 7.50, supp6,
2019-07-25,1.15, -1.47, -0.38, 1.82, 1.59, 7.21, supp6,
2019-07-26,1.82, -0.20, -4.42, 1.93, 1.72, 7.62, suppl,
2019-07-27,2.00, 1.43, -1.02, 1.84, 1.63, 7.40, supp6,
2019-07-28,2.62, 0.33, 1.69, 1.82, 1.61, 7.22, supp6,
2019-07-29,2.47, 0.57, -5.21, 1.84, 1.58, 7.27, supp6,
2019-07-30,2.55, -1.25, -2.96, 1.80, 1.56, 7.08, supp6,
2019-07-31,1.20, -0.77, -2.27, 1.82, 1.62, 7.20, supp6,
2019-08-01,2.84, -1.14, -2.61, 1.79, 1.56, 7.09, supp6,
2019-08-02,2.14, 0.26, -1.90, 1.84, 1.63, 7.16, supp6,
2019-08-03,1.44, 0.16, -0.59, 1.79, 1.56, 7.02, supp6,
2019-08-04,2.29, -0.30, 0.67, 1.80, 1.57, 7.11, supp6,
2019-08-05,2.43, -0.33, 0.22, 1.85, 1.58, 7.26, supp6,
2019-08-06,0.94, -0.90, 3.61, 1.84, 1.65, 7.32, supp6,
2019-08-07,1.02, 0.64, -0.30, 1.89, 1.62, 7.43, supp6,
2019-08-08,1.72, -1.48, -0.43, 1.89, 1.63, 7.42, supp6,
2019-08-09,2.92, -0.89, -2.61, 1.87, 1.61, 7.32, supp6,
2019-08-10,1.68, -0.33, 0.54, 1.89, 1.64, 7.33, supp6,
2019-08-11,1.40, -0.70, 3.26, 1.89, 1.64, 7.35, supp6,
2019-08-12,1.58, -0.74, -3.08, 1.78, 1.56, 7.05, supp6,
2019-08-13,1.79, 0.08, 0.49, 1.89, 1.66, 7.36, supp6,
2019-08-14,0.95, -0.51, -0.92, 1.83, 1.60, 7.19, supp6,
2019-08-15,1.76, -0.47, 10.71, 1.79, 1.57, 7.09, supp6,
2019-08-16,1.16, -0.30, 7.04, 1.81, 1.62, 7.23, supp6,
2019-08-17,1.12, -1.01, 5.30, 1.79, 1.57, 7.07, supp6,
2019-08-18,0.42, -0.49, 5.14, 1.84, 1.65, 7.34, supp6,
2019-08-19,2.02, -0.50, 9.58, 1.83, 1.62, 7.33, supp6,
2019-08-20,1.03, 0.55, 1.84, 1.79, 1.57, 7.07, supp6,
2019-08-21,1.92, -0.63, 6.42, 1.80, 1.58, 7.14, supp6,
2019-08-22,1.13, -1.32, 0.41, 1.81, 1.60, 7.21, supp6,
2019-08-23,1.15, -0.64, 3.51, 1.82, 1.58, 7.10, supp6,
2019-08-24,1.13, -0.41, 4.61, 1.80, 1.57, 7.09, supp6,
2019-08-25,1.74, 0.40, 0.94, 1.80, 1.58, 7.13, supp6,
2019-08-26,0.21, -0.83, 3.99, 1.79, 1.58, 7.11, supp6,
2019-08-27,1.35, -0.34, 1.64, 1.80, 1.57, 7.09, supp6,
2019-08-28,1.00, -0.49, -0.71, 1.83, 1.58, 7.12, supp6,
2019-08-29,-0.02, -0.10, 0.00, 1.86, 1.57, 7.25, supp6,
2019-08-30,1.71, 0.36, -2.89, 1.93, 1.67, 7.72, supp6,
2019-08-31,0.21, -0.53, 0.58, 1.79, 1.56, 7.06, supp6,
2019-09-01,1.34, -0.69, 4.94, 1.79, 1.57, 7.07, supp6,
2019-09-02,1.32, -1.42, -5.40, 1.79, 1.57, 7.07, supp6,
2019-09-03,-0.02, -0.87, -0.32, 1.80, 1.55, 7.06, supp6,
2019-09-04,0.47, -1.42, -7.70, 1.85, 1.64, 7.39, supp6,
2019-09-05,2.59, 0.30, -4.12, 1.86, 1.65, 7.50, supp6,
2019-09-06,1.16, 0.20, -5.07, 1.80, 1.61, 7.16, supp6,
2019-09-07,1.64, 0.07, -7.86, 1.79, 1.57, 7.04, supp6,
2019-09-08,1.28, -1.08, -3.79, 1.82, 1.59, 7.18, supp6,
2019-09-09,0.25, -0.81, 2.61, 1.82, 1.62, 7.25, supp6,
2019-09-10,0.02, -0.61, 3.50, 1.86, 1.63, 7.37, supp6,
2019-09-11,0.63, -0.43, 1.30, 1.80, 1.57, 7.09, supp6,
2019-09-12,1.08, 0.57, -1.55, 1.82, 1.60, 7.21, supp6,
2019-09-13,1.12, -0.42, -4.39, 1.81, 1.59, 7.18, supp6,
2019-09-14,0.48, -0.22, -3.71, 1.79, 1.57, 7.08, supp6,
2019-09-15,0.48, -0.01, -2.14, 1.81, 1.57, 7.13, supp6,
2019-09-16,0.42, -0.58, 3.19, 1.94, 1.71, 7.71, supp6,
2019-09-17,-0.69, 1.44, 3.60, 1.84, 1.62, 7.26, supp6,
2019-09-18,0.41, 1.72, -0.55, 1.87, 1.63, 7.39, supp6,
2019-09-19,1.28, 0.22, 2.29, 1.81, 1.60, 7.20, supp6,
2019-09-20,2.23, -0.52, 2.95, 1.93, 1.67, 7.61, supp6,
2019-09-21,1.89, 0.23, 1.94, 1.90, 1.60, 7.40, supp6,
2019-09-22,1.20, 0.06, 0.75, 1.82, 1.60, 7.17, supp6,
2019-09-23,0.02, 0.23, 2.80, 1.81, 1.58, 7.11, supp6,
2019-09-24,1.42, -0.16, -4.22, 1.81, 1.59, 7.14, supp6,
2019-09-25,2.61, -0.10, -0.20, 1.82, 1.60, 7.27, supp6,
2019-09-26,1.05, -1.14, 10.34, 1.83, 1.61, 7.29, supp6,
2019-09-27,0.12, -0.77, 7.47, 1.79, 1.55, 7.03, supp6,
2019-09-28,0.73, -1.25, 7.65, 1.88, 1.59, 7.44, supp6,
2019-09-29,0.10, -0.17, 7.15, 1.89, 1.62, 7.43, supp6,
2019-09-30,0.40, -0.49, 2.09, 1.79, 1.59, 7.14, supp6,
2019-10-01,1.45, 0.06, 3.25, 1.82, 1.61, 7.24, supp6,
2019-10-02,1.24, 0.05, -2.11, 1.83, 1.60, 7.25, supp6,
2019-10-03,1.02, -1.09, -2.31, 1.85, 1.68, 7.53, supp6,
2019-10-04,1.18, 0.44, -1.69, 1.92, 1.72, 7.56, supp6,
2019-10-05,0.45, -0.35, -5.53, 1.87, 1.66, 7.48, supp6,
2019-10-06,1.40, 0.19, 0.22, 1.69, 1.53, 7.14, supp6,
2019-10-07,0.91, 0.42, 0.00, 1.71, 1.56, 7.22, supp6,
2019-10-08,1.83, 0.01, -3.19, 1.73, 1.56, 7.25, supp6,
2019-10-09,0.97, 0.16, -1.07, 1.72, 1.56, 7.25, supp6,
2019-10-10,1.13, -1.26, 2.39, 1.74, 1.62, 7.44, supp6,
2019-10-11,1.42, -0.16, 0.40, 1.72, 1.56, 7.25, supp6,
2019-10-12,0.90, 0.46, -1.90, 1.72, 1.57, 7.26, supp6,
2019-10-13,1.46, -0.33, 0.79, 1.73, 1.57, 7.27, supp6,
2019-10-14,1.43, -0.44, 4.40, 1.74, 1.59, 7.37, supp6,
2019-10-15,1.58, -0.39, -0.60, 1.72, 1.56, 7.24, supp6,
2019-10-16,0.90, 0.25, -3.07, 1.72, 1.57, 7.27, supp6,
2019-10-17,1.81, 0.17, 1.23, 1.73, 1.56, 7.26, supp6,
2019-10-18,1.12, -0.98, -0.78, 1.72, 1.57, 7.29, supp6,
2019-10-19,1.91, -0.10, 3.12, 1.73, 1.56, 7.25, supp6,
2019-10-20,1.37, -0.27, 2.60, 1.72, 1.55, 7.21, supp6,
2019-10-21,1.93, -0.79, 3.86, 1.72, 1.56, 7.24, supp6,
2019-10-22,2.18, -0.45, 3.26, 1.73, 1.58, 7.28, supp6,
2019-10-23,1.67, -0.31, 2.84, 1.72, 1.55, 7.21, supp6,
2019-10-24,2.10, -0.77, 2.11, 1.72, 1.55, 7.20, supp6,
2019-10-25,1.81, -0.42, 3.61, 1.71, 1.55, 7.19, supp6,
2019-10-26,1.25, -0.15, 8.38, 1.72, 1.56, 7.23, supp6,
2019-10-27,1.73, -0.43, 5.82, 1.72, 1.56, 7.21, supp6,
2019-10-28,1.85, 0.24, 0.79, 1.72, 1.57, 7.24, supp6,
2019-10-29,2.03, -0.33, 0.02, 1.72, 1.55, 7.18, supp6,
2019-10-30,2.20, 0.13, 1.57, 1.75, 1.62, 7.46, supp6,
2019-10-31,1.96, -0.46, 3.31, 1.75, 1.60, 7.31, supp6,
2019-11-01,0.98, -0.49, 2.30, 1.75, 1.61, 7.35, supp6,
2019-11-02,0.35, -1.41, 0.12, 1.73, 1.56, 7.27, supp6,